Weather in Bolotnoe

Russia / Novosibirsk Oblast     55°40′19″N   84°23′07″E
temp.,
°C
wind,
m/s
gust,
m/s
humid.,
%
clouds,
%
prec.,
mm/h
press.,
hPa
HPBL,
m
28 february, sun
sun2801:00−28sw369895 0.0 1038105
04:00−30sw349880 0.0 103865
07:00−31ssw349781 0.0 103956
10:00−28s369660 0.0 1038159
13:00−23s359475 0.0 1036256
16:00−20sse359281 0.0 1033330
19:00−21ese349690 0.0 103060
22:00−19ese3498100 0.0 102891
1 march, mon
mon101:00−16ese2397100 0.3 102582
04:00−15e3597100 0.1 1022121
07:00−12ese4796100 0.6 1018235
10:00−11e4795100 1.1 1015255
13:00−7e5795100 2.1 1012392
16:00−6ene61095100 1.3 1010474
19:00−9ene81395100 4.1 1009417
22:00−10ne71294100 2.1 1008416
2 march, tue
tue201:00−12ne61094100 2.7 1009394
04:00−15nne4994100 0.1 1011287
07:00−19nne349899 0.1 101475
10:00−19ne359784 0.0 1016144
13:00−16ene229191 0.1 1017288
16:00−14ene1189100 0.1 1017288
19:00−15ese119699 0.3 101820
22:00−16e1296100 0.1 101820
3 march, wed
wed301:00−15se129699 0.2 101721
04:00−16ese129793 0.0 101620
07:00−16e129690 0.1 101720
10:00−15ene239793 0.1 1016109
13:00−12e229196 0.1 1017259
16:00−10ne2291100 0.1 1017246
19:00−12ene119698 0.3 101921
22:00−14ese129783 0.1 102120
4 march, thu
thu401:00−14sw359689 0.2 102293
04:00−17sw369785 0.0 1023108
07:00−20s349875 0.0 102572
10:00−18s489419 0.0 1025238
13:00−13sse589146 0.0 1024395
16:00−9sse599099 0.0 1021612
19:00−9sse4119199 0.1 1020391
22:00−9sse51191100 0.0 1018304